Time,TemperatureF,DewpointF,PressureIn,WindDirection,WindDirectionDegrees,WindSpeedMPH,WindSpeedGustMPH,Humidity,HourlyPrecipIn,Conditions,Clouds,dailyrainin,SoftwareType,DateUTC
2013-06-10 00:00:00,69.8,67.1,30.02,ENE,71,0.0,0.0,91,0.00,,,0.00,Wunderground v.1.15,2013-06-10 04:00:00,
2013-06-10 00:05:00,69.8,67.1,30.02,ENE,71,0.0,0.0,91,0.00,,,0.00,Wunderground v.1.15,2013-06-10 04:05:00,
2013-06-10 00:15:00,69.7,66.6,30.02,ENE,71,0.0,1.0,90,0.00,,,0.00,Wunderground v.1.15,2013-06-10 04:15:00,
2013-06-10 00:25:00,69.6,66.5,30.01,ENE,71,0.0,0.0,90,0.00,,,0.00,Wunderground v.1.15,2013-06-10 04:25:00,
2013-06-10 00:35:00,69.4,66.7,30.02,ENE,71,0.0,0.0,91,0.00,,,0.00,Wunderground v.1.15,2013-06-10 04:35:00,
2013-06-10 00:40:00,69.4,66.7,30.01,ENE,71,0.0,0.0,91,0.00,,,0.00,Wunderground v.1.15,2013-06-10 04:40:00,
2013-06-10 00:50:00,69.4,66.7,30.01,ENE,71,0.0,0.0,91,0.00,,,0.00,Wunderground v.1.15,2013-06-10 04:50:00,
2013-06-10 00:55:00,69.4,66.7,30.01,ENE,60,0.0,1.0,91,0.00,,,0.00,Wunderground v.1.15,2013-06-10 04:55:00,
2013-06-10 01:05:00,69.4,66.7,30.01,NE,42,0.0,0.0,91,0.00,,,0.00,Wunderground v.1.15,2013-06-10 05:05:00,
2013-06-10 01:15:00,69.3,66.6,30.01,NE,42,0.0,0.0,91,0.00,,,0.00,Wunderground v.1.15,2013-06-10 05:15:00,
2013-06-10 01:25:00,69.3,66.6,30.01,NE,43,0.0,0.0,91,0.00,,,0.00,Wunderground v.1.15,2013-06-10 05:25:00,
2013-06-10 01:35:00,69.2,66.8,30.01,NE,42,0.0,0.0,92,0.10,,,0.02,Wunderground v.1.15,2013-06-10 05:35:00,
2013-06-10 01:45:00,68.8,66.7,30.01,NE,42,0.0,0.0,93,0.06,,,0.02,Wunderground v.1.15,2013-06-10 05:45:00,
2013-06-10 01:55:00,68.5,66.7,30.00,NE,42,0.0,0.0,94,0.06,,,0.03,Wunderground v.1.15,2013-06-10 05:55:00,
2013-06-10 02:05:00,68.3,66.5,29.99,NE,43,0.0,0.0,94,0.00,,,0.03,Wunderground v.1.15,2013-06-10 06:05:00,
2013-06-10 02:15:00,68.1,66.6,29.99,NE,42,0.0,0.0,95,0.00,,,0.04,Wunderground v.1.15,2013-06-10 06:15:00,
2013-06-10 02:20:00,68.0,66.5,29.98,NE,43,0.0,0.0,95,0.00,,,0.04,Wunderground v.1.15,2013-06-10 06:20:00,
2013-06-10 02:30:00,67.9,66.4,29.98,NE,43,0.0,0.0,95,0.00,,,0.04,Wunderground v.1.15,2013-06-10 06:30:00,
2013-06-10 02:35:00,67.9,66.4,29.98,NE,43,0.0,0.0,95,0.00,,,0.04,Wunderground v.1.15,2013-06-10 06:35:00,
2013-06-10 02:45:00,67.7,66.2,29.98,NE,43,0.0,0.0,95,0.00,,,0.04,Wunderground v.1.15,2013-06-10 06:45:00,
2013-06-10 02:55:00,67.6,66.4,29.98,NE,43,0.0,0.0,96,0.00,,,0.04,Wunderground v.1.15,2013-06-10 06:55:00,
2013-06-10 03:05:00,67.6,66.4,29.96,NNE,19,1.0,3.0,96,0.00,,,0.05,Wunderground v.1.15,2013-06-10 07:05:00,
2013-06-10 03:15:00,67.5,66.3,29.96,NE,47,1.0,1.0,96,0.00,,,0.05,Wunderground v.1.15,2013-06-10 07:15:00,
2013-06-10 03:20:00,67.5,66.3,29.96,NE,47,0.0,0.0,96,0.00,,,0.05,Wunderground v.1.15,2013-06-10 07:20:00,
2013-06-10 03:30:00,67.3,66.1,29.95,NE,47,0.0,1.0,96,0.00,,,0.05,Wunderground v.1.15,2013-06-10 07:30:00,
2013-06-10 03:40:00,67.2,66.0,29.96,WNW,294,0.0,3.0,96,0.00,,,0.05,Wunderground v.1.15,2013-06-10 07:40:00,
2013-06-10 03:50:00,67.0,65.8,29.96,WNW,295,0.0,0.0,96,0.00,,,0.05,Wunderground v.1.15,2013-06-10 07:50:00,
2013-06-10 04:00:00,67.0,65.8,29.95,WNW,295,0.0,0.0,96,0.00,,,0.05,Wunderground v.1.15,2013-06-10 08:00:00,
2013-06-10 04:05:00,66.9,65.7,29.95,WNW,295,0.0,0.0,96,0.00,,,0.06,Wunderground v.1.15,2013-06-10 08:05:00,
2013-06-10 04:15:00,66.7,65.5,29.96,WNW,295,0.0,0.0,96,0.00,,,0.06,Wunderground v.1.15,2013-06-10 08:15:00,
2013-06-10 04:25:00,66.5,65.3,29.95,WNW,295,0.0,0.0,96,0.00,,,0.06,Wunderground v.1.15,2013-06-10 08:25:00,
2013-06-10 04:35:00,66.5,65.6,29.95,WNW,295,0.0,0.0,97,0.00,,,0.06,Wunderground v.1.15,2013-06-10 08:35:00,
2013-06-10 04:40:00,66.5,65.6,29.95,WNW,295,0.0,0.0,97,0.00,,,0.06,Wunderground v.1.15,2013-06-10 08:40:00,
2013-06-10 04:50:00,66.6,65.7,29.95,WNW,295,0.0,0.0,97,0.00,,,0.07,Wunderground v.1.15,2013-06-10 08:50:00,
2013-06-10 05:00:00,66.7,65.8,29.94,WNW,295,0.0,0.0,97,0.00,,,0.07,Wunderground v.1.15,2013-06-10 09:00:00,
2013-06-10 05:05:00,66.7,65.8,29.94,WNW,295,0.0,0.0,97,0.00,,,0.07,Wunderground v.1.15,2013-06-10 09:05:00,
2013-06-10 05:15:00,66.8,65.9,29.94,WNW,295,0.0,0.0,97,0.00,,,0.08,Wunderground v.1.15,2013-06-10 09:15:00,
2013-06-10 05:25:00,67.0,66.1,29.94,WNW,295,0.0,0.0,97,0.00,,,0.08,Wunderground v.1.15,2013-06-10 09:25:00,
2013-06-10 05:35:00,67.0,66.1,29.94,SSE,152,0.0,0.0,97,0.04,,,0.09,Wunderground v.1.15,2013-06-10 09:35:00,
2013-06-10 05:45:00,67.1,66.2,29.94,SE,132,0.0,0.0,97,0.00,,,0.09,Wunderground v.1.15,2013-06-10 09:45:00,
2013-06-10 05:55:00,67.0,66.1,29.94,SE,131,0.0,0.0,97,0.00,,,0.10,Wunderground v.1.15,2013-06-10 09:55:00,
2013-06-10 06:05:00,66.9,66.0,29.94,SE,127,0.0,0.0,97,0.04,,,0.11,Wunderground v.1.15,2013-06-10 10:05:00,
2013-06-10 06:15:00,66.9,66.0,29.94,East,89,0.0,1.0,97,0.11,,,0.13,Wunderground v.1.15,2013-06-10 10:15:00,
2013-06-10 06:25:00,66.8,65.9,29.93,ENE,70,0.0,1.0,97,0.14,,,0.15,Wunderground v.1.15,2013-06-10 10:25:00,
2013-06-10 06:30:00,66.7,65.8,29.93,ENE,73,0.0,1.0,97,0.07,,,0.15,Wunderground v.1.15,2013-06-10 10:30:00,
2013-06-10 06:40:00,66.7,65.8,29.93,ENE,74,0.0,1.0,97,0.05,,,0.16,Wunderground v.1.15,2013-06-10 10:40:00,
2013-06-10 06:50:00,66.6,65.7,29.92,East,85,0.0,0.0,97,0.04,,,0.16,Wunderground v.1.15,2013-06-10 10:50:00,
2013-06-10 07:00:00,66.5,65.6,29.92,East,95,0.0,3.0,97,0.00,,,0.17,Wunderground v.1.15,2013-06-10 11:00:00,
2013-06-10 07:05:00,66.5,65.6,29.92,ENE,70,0.0,3.0,97,0.00,,,0.17,Wunderground v.1.15,2013-06-10 11:05:00,
2013-06-10 07:15:00,66.5,65.6,29.92,SE,125,0.0,0.0,97,0.04,,,0.18,Wunderground v.1.15,2013-06-10 11:15:00,
2013-06-10 07:20:00,66.5,65.6,29.92,East,87,0.0,0.0,97,0.04,,,0.18,Wunderground v.1.15,2013-06-10 11:20:00,
2013-06-10 07:30:00,66.4,65.5,29.92,NE,45,0.0,0.0,97,0.00,,,0.18,Wunderground v.1.15,2013-06-10 11:30:00,
2013-06-10 07:40:00,66.4,65.5,29.92,NE,45,0.0,0.0,97,0.00,,,0.19,Wunderground v.1.15,2013-06-10 11:40:00,
2013-06-10 07:50:00,66.3,65.4,29.92,NE,47,0.0,0.0,97,0.06,,,0.21,Wunderground v.1.15,2013-06-10 11:50:00,
2013-06-10 08:00:00,66.4,65.8,29.92,NE,47,0.0,0.0,98,0.06,,,0.21,Wunderground v.1.15,2013-06-10 12:00:00,
2013-06-10 08:05:00,66.4,65.8,29.92,NE,47,0.0,0.0,98,0.05,,,0.22,Wunderground v.1.15,2013-06-10 12:05:00,
2013-06-10 08:15:00,66.4,65.8,29.92,NE,47,0.0,0.0,98,0.17,,,0.25,Wunderground v.1.15,2013-06-10 12:15:00,
2013-06-10 08:20:00,66.4,65.8,29.92,NE,47,0.0,0.0,98,0.19,,,0.26,Wunderground v.1.15,2013-06-10 12:20:00,
2013-06-10 08:30:00,66.5,65.9,29.91,NE,47,0.0,0.0,98,0.12,,,0.29,Wunderground v.1.15,2013-06-10 12:30:00,
2013-06-10 08:40:00,66.6,66.0,29.92,NE,47,0.0,0.0,98,0.07,,,0.30,Wunderground v.1.15,2013-06-10 12:40:00,
2013-06-10 08:45:00,66.6,66.0,29.92,NE,47,0.0,0.0,98,0.29,,,0.33,Wunderground v.1.15,2013-06-10 12:45:00,
2013-06-10 08:55:00,66.7,66.1,29.91,NE,47,0.0,0.0,98,0.21,,,0.38,Wunderground v.1.15,2013-06-10 12:55:00,
2013-06-10 09:05:00,66.8,66.2,29.91,NE,48,0.0,0.0,98,0.09,,,0.40,Wunderground v.1.15,2013-06-10 13:05:00,
2013-06-10 09:15:00,66.9,66.3,29.91,NE,47,0.0,0.0,98,0.10,,,0.42,Wunderground v.1.15,2013-06-10 13:15:00,
2013-06-10 09:25:00,66.9,66.3,29.90,NE,47,0.0,0.0,98,0.06,,,0.43,Wunderground v.1.15,2013-06-10 13:25:00,
2013-06-10 09:35:00,67.0,66.4,29.90,NE,47,0.0,0.0,98,0.11,,,0.44,Wunderground v.1.15,2013-06-10 13:35:00,
2013-06-10 09:45:00,67.0,66.4,29.90,NE,47,0.0,0.0,98,0.09,,,0.46,Wunderground v.1.15,2013-06-10 13:45:00,
2013-06-10 09:50:00,67.1,66.5,29.90,NE,47,0.0,0.0,98,0.10,,,0.47,Wunderground v.1.15,2013-06-10 13:50:00,
2013-06-10 10:00:00,67.2,66.6,29.89,NE,48,0.0,0.0,98,0.12,,,0.49,Wunderground v.1.15,2013-06-10 14:00:00,
2013-06-10 10:05:00,67.2,66.6,29.89,NE,47,0.0,0.0,98,0.14,,,0.50,Wunderground v.1.15,2013-06-10 14:05:00,
2013-06-10 10:15:00,67.2,66.6,29.88,NE,47,0.0,0.0,98,0.14,,,0.52,Wunderground v.1.15,2013-06-10 14:15:00,
2013-06-10 10:20:00,67.2,66.6,29.88,NE,48,0.0,0.0,98,0.16,,,0.53,Wunderground v.1.15,2013-06-10 14:20:00,
2013-06-10 10:30:00,67.3,66.7,29.88,NE,48,0.0,0.0,98,0.12,,,0.55,Wunderground v.1.15,2013-06-10 14:30:00,
2013-06-10 10:40:00,67.5,66.9,29.88,NE,47,0.0,0.0,98,0.04,,,0.55,Wunderground v.1.15,2013-06-10 14:40:00,
2013-06-10 10:45:00,67.6,67.0,29.88,ESE,102,0.0,0.0,98,0.04,,,0.56,Wunderground v.1.15,2013-06-10 14:45:00,
2013-06-10 10:55:00,67.6,67.0,29.88,ESE,102,0.0,0.0,98,0.04,,,0.56,Wunderground v.1.15,2013-06-10 14:55:00,
2013-06-10 11:05:00,67.9,67.3,29.87,ESE,102,0.0,0.0,98,0.00,,,0.57,Wunderground v.1.15,2013-06-10 15:05:00,
2013-06-10 11:15:00,68.3,67.7,29.87,ESE,102,0.0,0.0,98,0.00,,,0.57,Wunderground v.1.15,2013-06-10 15:15:00,
2013-06-10 11:20:00,68.3,67.7,29.87,ESE,102,0.0,0.0,98,0.00,,,0.57,Wunderground v.1.15,2013-06-10 15:20:00,
2013-06-10 11:30:00,68.6,68.0,29.87,ESE,102,0.0,0.0,98,0.00,,,0.57,Wunderground v.1.15,2013-06-10 15:30:00,
2013-06-10 11:40:00,68.6,68.0,29.87,ESE,102,0.0,0.0,98,0.00,,,0.57,Wunderground v.1.15,2013-06-10 15:40:00,
2013-06-10 11:50:00,68.5,67.9,29.86,ESE,102,0.0,0.0,98,0.00,,,0.58,Wunderground v.1.15,2013-06-10 15:50:00,
2013-06-10 12:00:00,68.8,68.2,29.85,ESE,102,0.0,0.0,98,0.05,,,0.59,Wunderground v.1.15,2013-06-10 16:00:00,
2013-06-10 12:05:00,68.9,68.3,29.85,ESE,102,0.0,0.0,98,0.05,,,0.60,Wunderground v.1.15,2013-06-10 16:05:00,
2013-06-10 12:15:00,69.2,68.6,29.85,ESE,102,0.0,0.0,98,0.05,,,0.60,Wunderground v.1.15,2013-06-10 16:15:00,
2013-06-10 12:25:00,69.4,68.8,29.85,ESE,102,0.0,0.0,98,0.00,,,0.60,Wunderground v.1.15,2013-06-10 16:25:00,
2013-06-10 12:35:00,69.6,69.0,29.84,ESE,102,0.0,1.0,98,0.00,,,0.60,Wunderground v.1.15,2013-06-10 16:35:00,
2013-06-10 12:45:00,69.8,69.2,29.83,ESE,102,0.0,0.0,98,0.00,,,0.60,Wunderground v.1.15,2013-06-10 16:45:00,
2013-06-10 12:55:00,69.9,69.3,29.83,ESE,102,0.0,1.0,98,0.00,,,0.60,Wunderground v.1.15,2013-06-10 16:55:00,
2013-06-10 13:00:00,70.3,69.7,29.82,ESE,102,0.0,0.0,98,0.00,,,0.60,Wunderground v.1.15,2013-06-10 17:00:00,
2013-06-10 13:05:00,70.5,69.9,29.82,ESE,102,0.0,0.0,98,0.00,,,0.60,Wunderground v.1.15,2013-06-10 17:05:00,
2013-06-10 13:15:00,70.8,69.9,29.81,ESE,102,0.0,0.0,97,0.00,,,0.60,Wunderground v.1.15,2013-06-10 17:15:00,
2013-06-10 13:25:00,71.1,70.2,29.81,ESE,102,0.0,0.0,97,0.00,,,0.60,Wunderground v.1.15,2013-06-10 17:25:00,
2013-06-10 13:35:00,71.6,70.7,29.80,ESE,102,0.0,1.0,97,0.00,,,0.60,Wunderground v.1.15,2013-06-10 17:35:00,
2013-06-10 13:45:00,71.4,69.9,29.80,ESE,102,0.0,0.0,95,0.00,,,0.60,Wunderground v.1.15,2013-06-10 17:45:00,
2013-06-10 13:50:00,71.6,70.4,29.80,ESE,102,0.0,0.0,96,0.00,,,0.60,Wunderground v.1.15,2013-06-10 17:50:00,
2013-06-10 13:55:00,71.7,70.5,29.80,ESE,102,0.0,0.0,96,0.00,,,0.60,Wunderground v.1.15,2013-06-10 17:55:00,
2013-06-10 14:05:00,72.3,70.8,29.79,South,179,0.0,1.0,95,0.00,,,0.60,Wunderground v.1.15,2013-06-10 18:05:00,
2013-06-10 14:15:00,72.6,71.1,29.79,South,179,0.0,0.0,95,0.00,,,0.60,Wunderground v.1.15,2013-06-10 18:15:00,
2013-06-10 14:25:00,72.9,71.1,29.78,South,179,0.0,0.0,94,0.00,,,0.60,Wunderground v.1.15,2013-06-10 18:25:00,
2013-06-10 14:35:00,73.0,70.9,29.78,South,180,0.0,0.0,93,0.00,,,0.60,Wunderground v.1.15,2013-06-10 18:35:00,
2013-06-10 14:45:00,73.9,72.7,29.77,South,180,0.0,1.0,96,0.00,,,0.60,Wunderground v.1.15,2013-06-10 18:45:00,
2013-06-10 14:55:00,75.3,72.2,29.77,ENE,77,1.0,1.0,90,0.00,,,0.60,Wunderground v.1.15,2013-06-10 18:55:00,
2013-06-10 15:00:00,75.4,71.9,29.76,ENE,77,0.0,0.0,89,0.00,,,0.60,Wunderground v.1.15,2013-06-10 19:00:00,
2013-06-10 15:05:00,75.9,72.4,29.76,East,101,0.0,0.0,89,0.00,,,0.60,Wunderground v.1.15,2013-06-10 19:05:00,
2013-06-10 15:15:00,76.0,71.8,29.75,SW,219,1.0,1.0,87,0.00,,,0.60,Wunderground v.1.15,2013-06-10 19:15:00,
2013-06-10 15:25:00,75.2,72.1,29.75,SW,220,0.0,0.0,90,0.21,,,0.63,Wunderground v.1.15,2013-06-10 19:25:00,
2013-06-10 15:30:00,75.5,73.0,29.75,SW,220,0.0,0.0,92,0.08,,,0.63,Wunderground v.1.15,2013-06-10 19:30:00,
2013-06-10 15:40:00,77.2,74.4,29.74,NNW,341,0.0,0.0,91,0.00,,,0.63,Wunderground v.1.15,2013-06-10 19:40:00,
2013-06-10 15:50:00,76.7,73.5,29.74,North,354,0.0,0.0,90,0.00,,,0.63,Wunderground v.1.15,2013-06-10 19:50:00,
2013-06-10 15:55:00,76.4,73.2,29.74,North,354,0.0,0.0,90,0.00,,,0.63,Wunderground v.1.15,2013-06-10 19:55:00,
2013-06-10 16:05:00,74.6,69.8,29.74,SW,234,3.0,6.0,85,0.00,,,0.63,Wunderground v.1.15,2013-06-10 20:05:00,
2013-06-10 16:15:00,72.4,67.6,29.73,SSW,202,5.0,5.0,85,0.00,,,0.63,Wunderground v.1.15,2013-06-10 20:15:00,
2013-06-10 16:25:00,71.7,65.6,29.73,SSE,158,3.0,6.0,81,0.00,,,0.63,Wunderground v.1.15,2013-06-10 20:25:00,
2013-06-10 16:30:00,71.6,64.7,29.74,NE,52,4.0,4.0,79,0.00,,,0.63,Wunderground v.1.15,2013-06-10 20:30:00,
2013-06-10 16:40:00,71.7,65.9,29.73,NE,38,1.0,1.0,82,0.00,,,0.63,Wunderground v.1.15,2013-06-10 20:40:00,
2013-06-10 16:50:00,71.5,65.4,29.74,East,100,1.0,1.0,81,0.00,,,0.63,Wunderground v.1.15,2013-06-10 20:50:00,
2013-06-10 17:00:00,71.0,65.2,29.74,NNE,31,1.0,2.0,82,0.00,,,0.63,Wunderground v.1.15,2013-06-10 21:00:00,
2013-06-10 17:05:00,70.9,66.2,29.74,South,177,1.0,2.0,85,0.00,,,0.63,Wunderground v.1.15,2013-06-10 21:05:00,
2013-06-10 17:15:00,70.5,65.8,29.74,South,177,0.0,2.0,85,0.00,,,0.63,Wunderground v.1.15,2013-06-10 21:15:00,
2013-06-10 17:20:00,70.1,65.7,29.74,East,93,1.0,1.0,86,0.00,,,0.63,Wunderground v.1.15,2013-06-10 21:20:00,
2013-06-10 17:30:00,69.7,64.6,29.74,East,91,0.0,0.0,84,0.00,,,0.63,Wunderground v.1.15,2013-06-10 21:30:00,
2013-06-10 17:40:00,69.4,64.7,29.73,East,91,0.0,0.0,85,0.00,,,0.63,Wunderground v.1.15,2013-06-10 21:40:00,
2013-06-10 17:45:00,69.4,64.4,29.74,East,90,0.0,1.0,84,0.00,,,0.63,Wunderground v.1.15,2013-06-10 21:45:00,
2013-06-10 17:55:00,69.8,63.7,29.73,SW,232,1.0,1.0,81,0.00,,,0.63,Wunderground v.1.15,2013-06-10 21:55:00,
2013-06-10 18:05:00,70.2,64.1,29.74,SW,233,1.0,1.0,81,0.00,,,0.63,Wunderground v.1.15,2013-06-10 22:05:00,
2013-06-10 18:15:00,70.5,64.7,29.74,SW,233,0.0,1.0,82,0.00,,,0.63,Wunderground v.1.15,2013-06-10 22:15:00,
2013-06-10 18:20:00,70.9,65.8,29.74,SW,233,0.0,0.0,84,0.00,,,0.63,Wunderground v.1.15,2013-06-10 22:20:00,
2013-06-10 18:30:00,71.3,65.9,29.75,SW,233,0.0,0.0,83,0.00,,,0.63,Wunderground v.1.15,2013-06-10 22:30:00,
2013-06-10 18:40:00,71.4,65.3,29.74,SW,235,0.0,1.0,81,0.00,,,0.63,Wunderground v.1.15,2013-06-10 22:40:00,
2013-06-10 18:50:00,71.3,64.8,29.75,SW,223,1.0,2.0,80,0.00,,,0.63,Wunderground v.1.15,2013-06-10 22:50:00,
2013-06-10 19:00:00,70.8,65.0,29.74,NW,306,1.0,1.0,82,0.00,,,0.63,Wunderground v.1.15,2013-06-10 23:00:00,
2013-06-10 19:05:00,70.5,65.1,29.74,NW,306,1.0,1.0,83,0.00,,,0.63,Wunderground v.1.15,2013-06-10 23:05:00,
2013-06-10 19:15:00,70.0,64.9,29.75,NW,306,0.0,1.0,84,0.00,,,0.63,Wunderground v.1.15,2013-06-10 23:15:00,
2013-06-10 19:25:00,69.5,65.1,29.75,NW,305,0.0,0.0,86,0.00,,,0.63,Wunderground v.1.15,2013-06-10 23:25:00,
2013-06-10 19:35:00,69.3,64.6,29.75,NW,306,0.0,0.0,85,0.00,,,0.63,Wunderground v.1.15,2013-06-10 23:35:00,
2013-06-10 19:45:00,69.3,64.9,29.75,NW,306,0.0,0.0,86,0.00,,,0.63,Wunderground v.1.15,2013-06-10 23:45:00,
2013-06-10 19:55:00,69.4,65.4,29.76,WSW,245,0.0,3.0,87,0.00,,,0.63,Wunderground v.1.15,2013-06-10 23:55:00,
2013-06-10 20:00:00,69.3,65.3,29.75,WSW,246,1.0,1.0,87,0.00,,,0.63,Wunderground v.1.15,2013-06-11 00:00:00,
2013-06-10 20:05:00,69.2,64.8,29.75,WSW,246,1.0,1.0,86,0.00,,,0.63,Wunderground v.1.15,2013-06-11 00:05:00,
2013-06-10 20:15:00,69.0,64.0,29.75,WSW,246,0.0,1.0,84,0.00,,,0.63,Wunderground v.1.15,2013-06-11 00:15:00,
2013-06-10 20:25:00,68.8,64.8,29.75,WSW,246,0.0,0.0,87,0.00,,,0.63,Wunderground v.1.15,2013-06-11 00:25:00,
2013-06-10 20:35:00,68.6,63.9,29.75,WSW,246,0.0,1.0,85,0.00,,,0.63,Wunderground v.1.15,2013-06-11 00:35:00,
2013-06-10 20:45:00,68.3,63.9,29.75,WSW,253,0.0,0.0,86,0.00,,,0.63,Wunderground v.1.15,2013-06-11 00:45:00,
2013-06-10 20:55:00,67.9,62.9,29.75,WNW,295,1.0,2.0,84,0.00,,,0.63,Wunderground v.1.15,2013-06-11 00:55:00,
2013-06-10 21:05:00,67.5,62.5,29.75,West,279,1.0,1.0,84,0.00,,,0.63,Wunderground v.1.15,2013-06-11 01:05:00,
2013-06-10 21:15:00,66.8,62.8,29.75,West,259,1.0,1.0,87,0.00,,,0.63,Wunderground v.1.15,2013-06-11 01:15:00,
2013-06-10 21:25:00,66.0,62.3,29.75,West,269,1.0,3.0,88,0.00,,,0.63,Wunderground v.1.15,2013-06-11 01:25:00,
2013-06-10 21:35:00,65.5,61.5,29.76,WNW,300,1.0,2.0,87,0.00,,,0.63,Wunderground v.1.15,2013-06-11 01:35:00,
2013-06-10 21:45:00,65.5,61.2,29.76,WNW,284,1.0,4.0,86,0.00,,,0.63,Wunderground v.1.15,2013-06-11 01:45:00,
2013-06-10 21:55:00,65.3,61.0,29.76,WSW,239,1.0,3.0,86,0.00,,,0.63,Wunderground v.1.15,2013-06-11 01:55:00,
2013-06-10 22:05:00,65.2,61.6,29.76,West,274,1.0,1.0,88,0.00,,,0.63,Wunderground v.1.15,2013-06-11 02:05:00,
2013-06-10 22:15:00,64.8,61.2,29.77,West,274,0.0,0.0,88,0.00,,,0.63,Wunderground v.1.15,2013-06-11 02:15:00,
2013-06-10 22:20:00,64.6,61.0,29.77,West,274,0.0,0.0,88,0.00,,,0.63,Wunderground v.1.15,2013-06-11 02:20:00,
2013-06-10 22:30:00,64.5,61.2,29.77,West,274,0.0,0.0,89,0.00,,,0.63,Wunderground v.1.15,2013-06-11 02:30:00,
2013-06-10 22:40:00,64.5,61.2,29.77,West,270,1.0,4.0,89,0.00,,,0.63,Wunderground v.1.15,2013-06-11 02:40:00,
2013-06-10 22:50:00,64.5,61.2,29.77,West,277,1.0,1.0,89,0.00,,,0.63,Wunderground v.1.15,2013-06-11 02:50:00,
2013-06-10 23:00:00,64.1,61.1,29.77,West,272,1.0,1.0,90,0.00,,,0.63,Wunderground v.1.15,2013-06-11 03:00:00,
2013-06-10 23:05:00,64.0,61.0,29.77,West,272,0.0,1.0,90,0.00,,,0.63,Wunderground v.1.15,2013-06-11 03:05:00,
2013-06-10 23:15:00,63.9,60.9,29.77,West,272,0.0,1.0,90,0.00,,,0.63,Wunderground v.1.15,2013-06-11 03:15:00,
2013-06-10 23:25:00,64.0,61.3,29.77,West,272,0.0,0.0,91,0.00,,,0.63,Wunderground v.1.15,2013-06-11 03:25:00,
2013-06-10 23:35:00,64.0,61.3,29.77,West,272,0.0,0.0,91,0.00,,,0.63,Wunderground v.1.15,2013-06-11 03:35:00,
2013-06-10 23:45:00,63.9,61.2,29.77,West,272,1.0,1.0,91,0.00,,,0.63,Wunderground v.1.15,2013-06-11 03:45:00,
2013-06-10 23:55:00,63.6,61.2,29.77,WSW,248,1.0,4.0,92,0.00,,,0.63,Wunderground v.1.15,2013-06-11 03:55:00,